Regional Weather Roundup
Issued by NWS Bismarck, ND

Home | Current Version | Previous Version | Text Only | Print | Product List | Glossary On
Versions: 1 2 3 4 5 6 7 8 9 10 11 12 13 14 15 16 17 18 19 20 21 22 23 24 25 26 27 28 29 30 31 32 33 34 35 36 37 38 39 40 41 42 43 44 45 46 47 48 49 50
000
ASUS43 KBIS 270410
RWRBIS

NWR BROADCAST TEXT
NATIONAL WEATHER SERVICE BISMARCK ND
1000 PM CST MON JAN 26 2015

NOTE: "FAIR" INDICATES FEW OR NO CLOUDS BELOW 12,000 FEET WITH NO
SIGNIFICANT WEATHER AND/OR OBSTRUCTIONS TO VISIBILITY.


CITY           SKY/WX    TMP DP  RH WIND       PRES   REMARKS
WILLISTON      PTCLDY    31  28  89 E3        29.88F
MINOT          CLEAR     32  28  85 SE5       29.92F
MINOT AFB      CLEAR     29  29 100 S6        29.91F
BISMARCK       CLEAR     31  30  96 NE5       29.98S
DICKINSON      PTCLDY    34  30  85 S8        29.90S
GARRISON         N/A     31  29  92 CALM      29.93F
HETTINGER ARPT CLEAR     33  29  85 CALM      29.94S
JAMESTOWN      CLEAR     28  27  96 SW3       29.98S
BEACH          FAIR      39  34  81 SW8       29.92S
CARRINGTON     FAIR      30  30 100 MISG      29.98S
CROSBY         FAIR      32  32 100 S6        29.89S
HARVEY         FAIR      27  27 100 SW6       29.96S WCI  20
HAZEN          FAIR      28  27  93 CALM      29.95S
LINTON         FAIR      32  32 100 SE8       29.98S
MANDAN         FAIR      34  32  93 SE9       29.97S
OAKES            N/A     32  32 100 W5        30.01R
RUGBY          FAIR      23  23 100 S3        29.94F
TIOGA          FAIR      27  27 100 E3        29.92S
WATFORD CITY   FAIR      32  30  93 CALM      29.88S
$$

CITY           SKY/WX    TMP DP  RH WIND       PRES   REMARKS
GRAND FORKS    PTCLDY    24  22  91 CALM      30.01R
GRAND FORKS AF CLEAR     21  20  95 CALM      30.01S
DEVILS LAKE    PTCLDY    28  27  93 SW3       29.96F
FARGO          PTCLDY    28  25  88 NW3       30.02R
CANDO          FAIR      27  27 100 S6        29.96F WCI  20
CAVALIER       FAIR      19  19 100 S3        30.00S
GWINNER        CLEAR     32  32 100 NW6       30.02R
LANGDON        FAIR      19  18  93 S8        29.95S FOG     WCI   9
ROLLA          FAIR      28  28 100 S3        29.94S
WALHALLA         N/A     21  21 100 SE3       29.99S
$$

CITY           SKY/WX    TMP DP  RH WIND       PRES   REMARKS
ABERDEEN       CLEAR     31  28  89 NW6       30.02R
MOBRIDGE       CLEAR     35  30  82 SE6       29.96R
BUFFALO          N/A     43  32  65 W7        29.88S
RAPID CITY     CLEAR     36  27  69 CALM      29.98F
GLASGOW        CLEAR     35  31  85 SE9       29.85F
SIDNEY         PTCLDY    32  30  93 CALM      29.91S
WOLF POINT     PTCLDY    32  29  88 CALM      29.87F
GLENDIVE       CLEAR     37  32  81 S3        29.91S
MILES CITY     CLEAR     42  32  67 SE9       29.90F
BAKER          CLEAR     32  28  85 CALM      29.93F
$$

CITY           SKY/WX    TMP DP  RH WIND       PRES   REMARKS
BILLINGS       PTCLDY    52  26  36 SW25G32   29.99F
GREAT FALLS    CLEAR     51  29  42 SW15      29.93S
REGINA         MOCLDY    32  30  93 E8        29.85S
ESTEVAN        PTCLDY    30  28  93 S9        29.87F
$$



USA.gov is the U.S. government's official web portal to all federal, state and local government web resources and services.